This is the latest recevied weather packets stored in our database for station/object N8HON. If no packets are shown the sender has not sent any weather packets the latest 10 day(s).
| Time | Temp. | Humidity | Pressure | Rain* | Wind** | Luminosity | Snow |
|---|---|---|---|---|---|---|---|
| 1778155385 | 9.44° C | 89% | 1011 hPa | 0 mm | - | 15 W/m² | - |
| 1778155081 | 9.44° C | 88% | 1011.2 hPa | 0 mm | - | 16 W/m² | - |
| 1778154777 | 9.44° C | 88% | 1011.2 hPa | 0 mm | - | 10 W/m² | - |
| 1778154472 | 9.44° C | 89% | 1011.1 hPa | 0 mm | - | 12 W/m² | - |
| 1778154170 | 9.44° C | 89% | 1011 hPa | 0 mm | - | 10 W/m² | - |
| 1778153868 | 9.44° C | 89% | 1010.9 hPa | 0 mm | - | 10 W/m² | - |
| 1778153564 | 9.44° C | 89% | 1011.1 hPa | 0 mm | - | 12 W/m² | - |
| 1778153262 | 9.44° C | 89% | 1010.9 hPa | 0 mm | - | 15 W/m² | - |
| 1778152959 | 9.44° C | 89% | 1010.8 hPa | 0 mm | - | 8 W/m² | - |
| 1778152657 | 9.44° C | 90% | 1010.8 hPa | 0 mm | - | 11 W/m² | - |
| 1778152353 | 9.44° C | 90% | 1010.6 hPa | 0 mm | - | 9 W/m² | - |
| 1778152049 | 9.44° C | 90% | 1010.8 hPa | 0 mm | - | 8 W/m² | - |
| 1778151746 | 9.44° C | 90% | 1010.5 hPa | 0 mm | - | 15 W/m² | - |
| 1778151442 | 9.44° C | 90% | 1010.6 hPa | 0 mm | - | 13 W/m² | - |
| 1778151138 | 9.44° C | 91% | 1010.5 hPa | 0 mm | - | 18 W/m² | - |
| 1778150836 | 9.44° C | 91% | 1010.9 hPa | 0 mm | - | 10 W/m² | - |
| 1778150532 | 9.44° C | 91% | 1010.7 hPa | 0 mm | - | 5 W/m² | - |
| 1778150228 | 8.89° C | 90% | 1010.6 hPa | 0 mm | - | 4 W/m² | - |
| 1778149925 | 8.89° C | 91% | 1010 hPa | 0 mm | - | 5 W/m² | - |
| 1778149621 | 8.89° C | 91% | 1010.5 hPa | 0 mm | - | 2 W/m² | - |
| 1778149318 | 8.89° C | 91% | 1010.5 hPa | 0 mm | - | 0 W/m² | - |
| 1778149014 | 8.89° C | 91% | 1010.5 hPa | 0 mm | - | 1 W/m² | - |
| 1778148709 | 8.89° C | 92% | 1010.6 hPa | 0 mm | - | 0 W/m² | - |
| 1778148407 | 8.89° C | 92% | 1010.8 hPa | 0 mm | - | 0 W/m² | - |
| 1778148106 | 8.89° C | 92% | 1010.4 hPa | 0 mm | - | 0 W/m² | - |
* Rain latest hour (hover to see other rain measurements)
** Current wind speed in m/s (hover to see current wind gust speed)